Location: Malvern Link
(52.1333°N, 2.3000°W)
Time: 09:11:54
(UTC+00:00)

Cosmos 1634 Rocket - Pass Details

Date: 06 December 2021
Orbit: 959 x 993 km, 82.9° (Epoch: 24 January)

Event Time Altitude Azimuth Distance (km) Brightness Sun altitude
Exits shadow 06:43:00 15° 294° (WNW) 2,412 5.4 -11.4°
Maximum altitude 06:43:48 15° 285° (WNW) 2,388 5.4 -11.3°
Drops below altitude 10° 06:47:05 10° 253° (WSW) 2,723 5.9 -10.8°
Sets 06:50:44 0° 231° (SW) 3,657 6.7 -10.3°
